Hourly Data Report for October 07, 2015

All times are specified in Local Standard Time (LST). Add 1 hour to adjust for Daylight Saving Time where and when it is observed.

WINNIPEG A CS
MANITOBA

49°55'00.000" N
97°14'58.000" W
238.70 m
502S001
71849
XWG

Download Data

Hourly Data (October 2015)
Hourly Data Report for October 7, 2015
Temp Definition
°C
Dew Point Temp Definition
°C
Rel Hum Definition
%
Wind Dir Definition
10's deg

Wind Spd Definition
km/h
Visibility Definition
km
Stn Press Definition
kPa
Hmdx Definition


Wind Chill Definition


Weather Definition


TIME
00:00 -0.6 -3.0 84   0   99.42     LegendNANA
01:00 -1.9 -3.7 88 17 4   99.42   -3 LegendNANA
02:00 -0.4 -1.7 90 17 6   99.41   -2 LegendNANA
03:00 0.1 -1.6 88 19 8   99.39     LegendNANA
04:00 -2.4 -3.5 92 19 3   99.43   -4 LegendNANA
05:00 -0.5 -1.6 92 15 4   99.45   -2 LegendNANA
06:00 0.2 -1.7 87 16 8   99.48     LegendNANA
07:00 1.1 -0.5 89 17 12   99.46     LegendNANA
08:00 4.2 1.5 82 17 10   99.44     LegendNANA
09:00 6.2 2.2 76 17 17   99.38     LegendNANA
10:00 8.2 2.3 66 17 18   99.33     LegendNANA
11:00 9.4 1.6 58 16 21   99.26     LegendNANA
12:00 11.5 2.5 54 16 25   99.15     LegendNANA
13:00 11.2 1.7 52 15 22   99.05     LegendNANA
14:00 11.4 1.8 51 14 25   98.91     LegendNANA
15:00 11.1 1.4 51 14 29   98.72     LegendNANA
16:00 9.3 3.9 69 14 17   98.70     LegendNANA
17:00 7.5 4.6 82 13 15   98.68     LegendNANA
18:00 6.8 5.0 88 16 15   98.65     LegendNANA
19:00 6.7 5.0 89 12 22   98.62     LegendNANA
20:00 6.6 5.5 93 13 24   98.51     LegendNANA
21:00 6.5 5.9 96 11 19   98.46     LegendNANA
22:00 6.8 6.0 95 10 21   98.38     LegendNANA
23:00 7.0 6.2 94 10 17   98.36     LegendNANA

Notes on Data Quality.

Legend

  • E = Estimated
  • M = Missing
  • NA = Not Available
  • ‡ = Partner data that is not subject to review by the National Climate Archives
Date modified: